276  
ASUS41 KRLX 180910  
RWRRLX  
WEST VIRGINIA REGIONAL WEATHER ROUNDUP  
NATIONAL WEATHER SERVICE CHARLESTON WV  
500 AM EDT MON JUN 18 2018  
 
NOTE: "FAIR" INDICATES FEW OR NO CLOUDS BELOW 12,000 FEET WITH NO  
SIGNIFICANT WEATHER AND/OR S TO VISIBILITY
.  
 
WVZ003-181000-  
NORTHERN PANHANDLE OF WEST VIRGINIA  
 
CITY SKY/WX TMP DP RH WIND PRES REMARKS
 
WHEELING FAIR 71 66 84 S5 30.09S  

 
 
WVZ009-181000-  
NORTHWEST WEST VIRGINIA  
 
CITY SKY/WX TMP DP RH WIND PRES REMARKS
 
PARKERSBURG FAIR 68 65 90 CALM 30.12S  

 
 
WVZ006-181000-  
WESTERN WEST VIRGINIA  
 
CITY SKY/WX TMP DP RH WIND PRES REMARKS
 
HUNTINGTON FAIR 71 68 90 CALM 30.09F FOG  

 
 
WVZ015-181000-  
WEST CENTRAL WEST VIRGINIA  
 
CITY SKY/WX TMP DP RH WIND PRES REMARKS
 
CHARLESTON FAIR 68 67 96 CALM 30.11F  

 
 
WVZ022-031-181000-  
NORTH CENTRAL WEST VIRGINIA  
 
CITY SKY/WX TMP DP RH WIND PRES REMARKS
 
CLARKSBURG FAIR 71 68 90 CALM 30.12R FOG  
MORGANTOWN FAIR 71 70 96 CALM 30.11F  

 
 
WVZ025-035-042-045-181000-  
SOUTHERN WEST VIRGINIA  
 
CITY SKY/WX TMP DP RH WIND PRES REMARKS
 
BECKLEY FAIR 67 64 90 S3 30.21S  
LOGAN FAIR 70 70 100 CALM 30.16S  
BLUEFIELD FAIR 68 64 87 W6 30.24S  
LEWISBURG FAIR 63 62 97 CALM 30.21S FOG  

 
 
WVZ047-181000-  
NORTHERN MOUNTAINS OF WEST VIRGINIA  
 
CITY SKY/WX TMP DP RH WIND PRES REMARKS
 
ELKINS FOG 63 62 97 CALM 30.18S VSB 3/4  

 
 
WVZ052-181000-  
EASTERN PANHANDLE OF WEST VIRGINIA  
 
CITY SKY/WX TMP DP RH WIND PRES REMARKS
 
MARTINSBURG FAIR 68 67 96 CALM 30.06S FOG  
PETERSBURG FOG 66 66 99 CALM 30.11F VSB<1/4  

 
 
 
CLICK HERE TO GO TO PREVIOUS BULLETINS.

The Nexlab WV Page
The Nexlab OH Page
The Nexlab KY Page
The Nexlab VA Page Main Text Page